Oscoda, MI

2:53 AM EDT on September 01, 2016 (GMT -0400)
Oscoda-Wurtsmith

Weather History for KOSC - December, 2013

Change the Weather History Date:

Monday, December 23, 2013

  Actual Average Record
Temperature  
Mean Temperature 12 °F -  
Max Temperature 21 °F 29 °F 55 °F (2015)
Min Temperature 3 °F 15 °F -2 °F (2000)
Degree Days  
Heating Degree Days 52    
Moisture  
Dew Point 11 °F    
Average Humidity 81    
Maximum Humidity 91    
Minimum Humidity 65    
Precipitation  
Precipitation 0.00 in - - ()
Sea Level Pressure  
Sea Level Pressure 30.17 in    
Wind  
Wind Speed 7 mph (NNW)    
Max Wind Speed 10 mph    
Max Gust Speed -    
Visibility 8 miles    
Events Snow    
Averages and records for this station are not official NWS values.
T = Trace of Precipitation, MM = Missing Value Source: NWS Daily Summary

Daily Weather History Graph

Daily Weather History Graph

Search for Another Location

Airport or City:

Trip Planner

Search our weather history database for the weather conditions in past years. The results will help you decide how hot, cold, wet, or windy it might be!

Date:

Astronomy

Dec. 23, 2013 Rise Set
Actual Time 8:07 AM EST 4:57 PM EST
Civil Twilight 7:34 AM EST 5:31 PM EST
Nautical Twilight 6:57 AM EST 6:08 PM EST
Astronomical Twilight 6:22 AM EST 6:43 PM EST
Moon 11:20 PM EST (12/23) 11:19 AM EST (12/23)
Length of Visible Light 9h 57m
Length of Day
8h 50m
Waning Gibbous, 68% of the Moon is Illuminated
Dec 23
Waning Gibbous
Dec 25
Last Quarter
Jan 1
New
Jan 7
First Quarter
Jan 15
Full

Hourly Weather History & Observations

Time (EST) Temp. Windchill Dew Point Humidity Pressure Visibility Wind Dir Wind Speed Gust Speed Precip Events Conditions
12:13 AM 21.7 °F 12.3 °F 19.0 °F 89% 29.99 in 7.0 mi North 8.1 mph - N/A Snow Light Snow
12:34 AM 21.2 °F 11.7 °F 18.5 °F 89% 29.98 in 4.0 mi North 8.1 mph - N/A Snow Light Snow
12:54 AM 21.2 °F 11.7 °F 18.3 °F 89% 29.99 in 4.0 mi North 8.1 mph - N/A Snow Light Snow
1:13 AM 20.8 °F 10.4 °F 17.6 °F 87% 30.01 in 5.0 mi NNW 9.2 mph - N/A Snow Light Snow
1:34 AM 20.3 °F 10.6 °F 17.4 °F 89% 30.00 in 4.0 mi NNW 8.1 mph - N/A Snow Light Snow
1:54 AM 20.3 °F 10.6 °F 17.1 °F 87% 30.01 in 7.0 mi NNW 8.1 mph - N/A Snow Light Snow
2:13 AM 19.9 °F 9.3 °F 16.7 °F 87% 30.03 in 10.0 mi NNW 9.2 mph - N/A   Overcast
2:34 AM 19.4 °F 9.5 °F 16.2 °F 87% 30.03 in 5.0 mi NNW 8.1 mph - N/A Snow Light Snow
2:54 AM 19.2 °F 8.4 °F 15.6 °F 86% 30.03 in 10.0 mi NNW 9.2 mph - N/A   Overcast
3:13 AM 18.9 °F 7.2 °F 15.3 °F 86% 30.04 in 10.0 mi NNW 10.4 mph - N/A   Overcast
3:34 AM 18.7 °F 9.5 °F 15.1 °F 86% 30.05 in 7.0 mi NNW 6.9 mph - N/A Snow Light Snow
3:54 AM 18.5 °F 7.5 °F 14.9 °F 86% 30.05 in 5.0 mi NNW 9.2 mph - N/A Snow Light Snow
4:13 AM 18.3 °F 8.2 °F 14.9 °F 86% 30.05 in 2.5 mi NNW 8.1 mph - N/A Snow Light Snow
4:34 AM 18.0 °F 6.9 °F 14.9 °F 88% 30.06 in 2.5 mi NNW 9.2 mph - N/A Snow Light Snow
4:54 AM 17.6 °F 7.3 °F 14.5 °F 88% 30.06 in 3.0 mi NNW 8.1 mph - N/A Snow Light Snow
5:13 AM 17.4 °F 7.1 °F 14.4 °F 88% 30.06 in 3.0 mi NNW 8.1 mph - N/A Snow Light Snow
5:34 AM 17.2 °F 7.8 °F 14.0 °F 87% 30.06 in 4.0 mi NNW 6.9 mph - N/A Snow Light Snow
5:54 AM 17.1 °F 7.6 °F 14.0 °F 88% 30.07 in 4.0 mi NNW 6.9 mph - N/A Snow Light Snow
6:14 AM 17.1 °F 7.6 °F 14.0 °F 88% 30.08 in 4.0 mi NNW 6.9 mph - N/A Snow Light Snow
6:34 AM 16.7 °F 8.3 °F 13.8 °F 88% 30.09 in 5.0 mi NNW 5.8 mph - N/A Snow Light Snow
6:54 AM 16.7 °F 6.2 °F 13.6 °F 88% 30.10 in 5.0 mi NNW 8.1 mph - N/A Snow Light Snow
7:14 AM 16.5 °F 6.9 °F 13.5 °F 88% 30.10 in 3.0 mi NNW 6.9 mph - N/A Snow Light Snow
7:34 AM 16.5 °F 6.9 °F 13.1 °F 86% 30.11 in 5.0 mi NNW 6.9 mph - N/A Snow Light Snow
7:54 AM 16.2 °F 7.6 °F 12.7 °F 86% 30.12 in 5.0 mi NW 5.8 mph - N/A Snow Light Snow
8:14 AM 15.8 °F 6.1 °F 12.6 °F 87% 30.13 in 1.2 mi NW 6.9 mph - N/A Snow Light Snow
8:34 AM 15.4 °F 6.8 °F 12.2 °F 87% 30.14 in 5.0 mi NW 5.8 mph - N/A Snow Light Snow
8:54 AM 14.0 °F 6.5 °F 10.8 °F 87% 30.15 in 7.0 mi NW 4.6 mph - N/A Snow Light Snow
9:14 AM 14.5 °F 5.7 °F 11.3 °F 87% 30.15 in 10.0 mi NW 5.8 mph - N/A   Overcast
9:34 AM 15.4 °F 6.8 °F 11.3 °F 84% 30.16 in 10.0 mi NW 5.8 mph - N/A   Overcast
9:53 AM 16.3 °F 6.7 °F 11.7 °F 82% 30.16 in 7.0 mi NNW 6.9 mph - N/A   Overcast
10:14 AM 16.5 °F 6.0 °F 11.3 °F 80% 30.17 in 10.0 mi NW 8.1 mph - N/A   Overcast
10:34 AM 17.4 °F 8.0 °F 11.5 °F 78% 30.18 in 7.0 mi NW 6.9 mph - N/A   Overcast
10:53 AM 17.6 °F 9.3 °F 11.1 °F 76% 30.19 in 10.0 mi NNW 5.8 mph - N/A   Overcast
11:14 AM 18.1 °F 8.9 °F 10.8 °F 73% 30.20 in 10.0 mi NW 6.9 mph - N/A   Overcast
11:34 AM 18.3 °F 10.2 °F 10.4 °F 71% 30.19 in 10.0 mi North 5.8 mph - N/A   Overcast
11:53 AM 19.4 °F 12.8 °F 10.6 °F 69% 30.19 in 10.0 mi North 4.6 mph - N/A   Overcast
12:14 PM 19.2 °F - 9.9 °F 67% 30.19 in 10.0 mi Calm Calm - N/A   Mostly Cloudy
12:34 PM 19.8 °F 10.8 °F 11.3 °F 70% 30.18 in 10.0 mi NW 6.9 mph - N/A   Scattered Clouds
12:53 PM 19.2 °F 12.5 °F 9.7 °F 66% 30.18 in 10.0 mi NW 4.6 mph - N/A   Scattered Clouds
1:14 PM 20.7 °F 11.9 °F 10.4 °F 65% 30.18 in 10.0 mi NW 6.9 mph - N/A   Scattered Clouds
1:34 PM 19.6 °F 10.6 °F 10.8 °F 69% 30.19 in 10.0 mi NW 6.9 mph - N/A   Scattered Clouds
1:53 PM 20.8 °F 11.2 °F 11.7 °F 68% 30.19 in 7.0 mi NW 8.1 mph - N/A Snow Light Snow
2:14 PM 20.8 °F 10.4 °F 12.7 °F 71% 30.20 in 5.0 mi WNW 9.2 mph - N/A Snow Light Snow
2:34 PM 21.4 °F 11.9 °F 12.0 °F 67% 30.19 in 10.0 mi NW 8.1 mph - N/A Snow Light Snow
2:53 PM 20.3 °F 12.5 °F 11.3 °F 68% 30.20 in 7.0 mi NW 5.8 mph - N/A Snow Light Snow
3:14 PM 20.3 °F 12.5 °F 11.8 °F 70% 30.20 in 10.0 mi NW 5.8 mph - N/A   Overcast
3:34 PM 21.4 °F 13.8 °F 12.6 °F 69% 30.21 in 10.0 mi NW 5.8 mph - N/A   Overcast
3:53 PM 20.5 °F - 12.9 °F 73% 30.22 in 10.0 mi Calm Calm - N/A   Overcast
4:14 PM 20.8 °F 16.0 °F 12.7 °F 71% 30.23 in 10.0 mi NW 3.5 mph - N/A   Overcast
4:34 PM 20.1 °F 11.3 °F 13.1 °F 74% 30.24 in 10.0 mi NNW 6.9 mph - N/A   Overcast
4:54 PM 19.9 °F 9.3 °F 12.0 °F 71% 30.25 in 10.0 mi NW 9.2 mph - N/A Snow Light Snow
5:14 PM 18.3 °F 9.1 °F 10.4 °F 71% 30.25 in 10.0 mi NW 6.9 mph - N/A   Mostly Cloudy
5:34 PM 17.4 °F 8.0 °F 10.4 °F 74% 30.26 in 10.0 mi NW 6.9 mph - N/A   Overcast
5:54 PM 15.3 °F 5.4 °F 8.6 °F 75% 30.25 in 10.0 mi NNW 6.9 mph - N/A   Scattered Clouds
6:14 PM 14.4 °F 6.9 °F 8.2 °F 77% 30.26 in 10.0 mi NW 4.6 mph - N/A   Clear
6:34 PM 14.0 °F 8.2 °F 9.1 °F 81% 30.27 in 10.0 mi NW 3.5 mph - N/A   Scattered Clouds
6:54 PM 12.7 °F 6.7 °F 8.2 °F 82% 30.28 in 10.0 mi WNW 3.5 mph - N/A   Scattered Clouds
7:14 PM 10.6 °F 4.3 °F 6.8 °F 85% 30.28 in 10.0 mi NW 3.5 mph - N/A   Scattered Clouds
7:34 PM 8.1 °F -2.0 °F 5.2 °F 88% 30.28 in 10.0 mi NNW 5.8 mph - N/A   Mostly Cloudy
7:54 PM 8.4 °F -0.1 °F 5.0 °F 86% 30.28 in 10.0 mi NNW 4.6 mph - N/A   Mostly Cloudy
8:14 PM 8.6 °F -2.6 °F 6.4 °F 91% 30.29 in 10.0 mi North 6.9 mph - N/A Snow Light Snow
8:33 PM 10.4 °F -0.4 °F 7.7 °F 89% 30.29 in 10.0 mi North 6.9 mph - N/A   Scattered Clouds
8:54 PM 10.0 °F -0.9 °F 6.4 °F 85% 30.29 in 10.0 mi NNW 6.9 mph - N/A   Clear
9:14 PM 9.3 °F -2.8 °F 5.0 °F 83% 30.29 in 10.0 mi NNW 8.1 mph - N/A   Scattered Clouds
9:33 PM 9.0 °F 0.6 °F 4.6 °F 83% 30.29 in 10.0 mi NNW 4.6 mph - N/A   Mostly Cloudy
9:54 PM 8.2 °F -1.8 °F 4.1 °F 83% 30.29 in 10.0 mi NNW 5.8 mph - N/A   Overcast
10:14 PM 6.6 °F - 3.7 °F 88% 30.29 in 10.0 mi Calm Calm - N/A   Overcast
10:33 PM 6.1 °F -2.8 °F 3.6 °F 89% 30.29 in 10.0 mi NNW 4.6 mph - N/A   Overcast
10:54 PM 4.6 °F -6.0 °F 1.8 °F 88% 30.29 in 10.0 mi NNW 5.8 mph - N/A   Scattered Clouds
11:14 PM 5.4 °F -1.7 °F 1.9 °F 86% 30.29 in 10.0 mi NNW 3.5 mph - N/A   Clear
11:33 PM 4.1 °F -3.2 °F 0.9 °F 86% 30.29 in 10.0 mi NW 3.5 mph - N/A   Clear
11:54 PM 3.9 °F - 0.5 °F 86% 30.29 in 10.0 mi Calm Calm - N/A   Clear